QPF
0.00 0.00 0.00 0.00 0.00 0.00 0.00 0.00 0.00 0.00 0.00 0.00 0.00 0.00 0.00 0.00 0.00 0.00 0.00 0.00 0.00 0.00 0.00 0.00 0.00 0.00 0.00 0.00 0.00 0.00 0.00 0.00 0.00 0.02 0.01 0.00 0.00 0.00 0.00 0.00 0.00 0.00 0.00 0.00 0.00
0.00 0.00 0.00 0.00 0.00 0.00 0.00 0.00 0.00 0.00 0.00 0.00 0.00 0.00 0.00 0.00 0.00 0.00 0.00 0.00 0.00 0.00 0.00 0.00 0.00 0.00 0.00 0.00 0.00 0.00 0.00 0.00 0.00 0.00 0.01 0.00 0.00 0.00 0.00 0.00 0.00 0.00 0.00 0.00 0.00
0.00 0.00 0.00 0.00 0.00 0.00 0.00 0.00 0.00 0.00 0.00 0.00 0.00 0.00 0.00 0.00 0.00 0.00 0.00 0.00 0.00 0.00 0.00 0.00 0.00 0.00 0.00 0.00 0.00 0.00 0.00 0.00 0.00 0.00 0.01 0.00 0.00 0.00 0.00 0.00 0.00 0.00 0.00 0.00 0.00
0.00 0.00 0.00 0.00 0.00 0.00 0.00 0.00 0.00 0.00 0.00 0.00 0.00 0.00 0.00 0.00 0.00 0.00 0.00 0.00 0.00 0.00 0.00 0.00 0.00 0.00 0.00 0.00 0.00 0.00 0.00 0.00 0.00 0.00 0.01 0.00 0.00 0.00 0.00 0.00 0.00 0.00 0.00 0.00 0.00
0.00 0.00 0.00 0.00 0.00 0.00 0.00 0.00 0.00 0.00 0.00 0.00 0.00 0.00 0.00 0.00 0.00 0.00 0.00 0.00 0.00 0.00 0.00 0.00 0.00 0.00 0.00 0.00 0.00 0.00 0.00 0.00 0.00 0.00 0.00 0.00 0.00 0.00 0.00 0.00 0.00 0.00 0.00 0.00 0.00
0.00 0.00 0.00 0.00 0.00 0.00 0.00 0.00 0.00 0.00 0.00 0.00 0.00 0.00 0.00 0.00 0.00 0.00 0.00 0.00 0.00 0.00 0.00 0.00 0.00 0.00 0.00 0.00 0.00 0.00 0.00 0.00 0.00 0.00 0.00 0.00 0.00 0.00 0.00 0.00 0.00 0.00 0.00 0.00 0.00
0.00 0.00 0.00 0.00 0.00 0.00 0.00 0.00 0.00 0.00 0.00 0.00 0.00 0.00 0.00 0.00 0.00 0.00 0.00 0.00 0.00 0.00 0.00 0.00 0.00 0.00 0.00 0.00 0.00 0.00 0.00 0.00 0.00 0.00 0.00 0.00 0.00 0.00 0.00 0.00 0.00 0.00 0.00 0.00 0.00
0.00 0.00 0.00 0.00 0.00 0.00 0.00 0.00 0.00 0.00 0.00 0.00 0.00 0.00 0.00 0.00 0.00 0.00 0.00 0.00 0.00 0.00 0.00 0.00 0.00 0.00 0.00 0.00 0.00 0.00 0.00 0.00 0.00 0.00 0.00 0.00 0.00 0.00 0.00 0.00 0.00 0.00 0.00 0.00 0.00
0.00 0.00 0.00 0.00 0.00 0.00 0.00 0.00 0.00 0.00 0.00 0.00 0.00 0.00 0.00 0.00 0.00 0.00 0.00 0.00 0.00 0.00 0.00 0.00 0.00 0.00 0.00 0.00 0.00 0.00 0.00 0.00 0.00 0.00 0.00 0.00 0.00 0.00 0.00 0.00 0.00 0.00 0.00 0.00 0.00
0.00 0.00 0.00 0.00 0.00 0.00 0.00 0.00 0.00 0.00 0.00 0.00 0.00 0.00 0.00 0.00 0.00 0.00 0.00 0.00 0.00 0.00 0.00 0.00 0.00 0.00 0.00 0.00 0.00 0.00 0.00 0.00 0.00 0.00 0.00 0.00 0.00 0.00 0.00 0.00 0.00 0.00 0.00 0.00 0.00
0.00 0.00 0.00 0.00 0.00 0.00 0.00 0.00 0.00 0.00 0.00 0.00 0.00 0.00 0.00 0.00 0.00 0.00 0.00 0.00 0.00 0.00 0.00 0.00 0.00 0.00 0.00 0.00 0.00 0.00 0.00 0.00 0.00 0.00 0.00 0.00 0.00 0.00 0.00 0.00 0.00 0.00 0.00 0.00 0.00
0.00 0.00 0.00 0.00 0.00 0.00 0.00 0.00 0.00 0.00 0.00 0.00 0.00 0.00 0.00 0.00 0.00 0.00 0.00 0.00 0.00 0.00 0.00 0.00 0.00 0.00 0.00 0.00 0.00 0.00 0.00 0.00 0.00 0.00 0.00 0.00 0.00 0.00 0.00 0.00 0.00 0.00 0.00 0.00 0.00
0.00 0.00 0.00 0.00 0.00 0.00 0.00 0.00 0.00 0.00 0.00 0.00 0.00 0.00 0.00 0.00 0.00 0.00 0.00 0.00 0.00 0.00 0.00 0.00 0.00 0.00 0.00 0.00 0.00 0.00 0.00 0.00 0.00 0.00 0.00 0.00 0.00 0.00 0.00 0.00 0.00 0.00 0.00 0.00 0.00
0.00 0.00 0.00 0.00 0.00 0.00 0.00 0.00 0.00 0.00 0.00 0.00 0.00 0.00 0.00 0.00 0.00 0.00 0.00 0.00 0.00 0.00 0.00 0.00 0.00 0.00 0.00 0.00 0.00 0.00 0.00 0.00 0.00 0.00 0.00 0.00 0.00 0.00 0.00 0.00 0.00 0.00 0.00 0.00 0.00
0.00 0.00 0.00 0.00 0.00 0.00 0.00 0.00 0.00 0.00 0.00 0.00 0.00 0.00 0.00 0.00 0.00 0.00 0.00 0.00 0.00 0.00 0.00 0.00 0.00 0.00 0.00 0.00 0.00 0.00 0.00 0.00 0.00 0.00 0.00 0.00 0.00 0.00 0.00 0.00 0.00 0.00 0.00 0.00 0.00
0.00 0.00 0.00 0.00 0.00 0.00 0.00 0.00 0.00 0.00 0.00 0.00 0.00 0.00 0.00 0.00 0.00 0.00 0.00 0.00 0.00 0.00 0.00 0.00 0.00 0.00 0.00 0.00 0.00 0.00 0.00 0.00 0.00 0.00 0.00 0.00 0.00 0.00 0.00 0.00 0.00 0.00 0.00 0.00 0.00
0.00 0.00 0.00 0.00 0.00 0.00 0.00 0.00 0.00 0.00 0.00 0.00 0.00 0.00 0.00 0.00 0.00 0.00 0.00 0.00 0.00 0.00 0.00 0.00 0.00 0.00 0.00 0.00 0.00 0.00 0.00 0.00 0.00 0.00 0.00 0.00 0.00 0.00 0.00 0.00 0.00 0.00 0.00 0.00 0.00
0.00 0.00 0.00 0.00 0.00 0.00 0.00 0.00 0.00 0.00 0.00 0.00 0.00 0.00 0.00 0.00 0.00 0.00 0.00 0.00 0.00 0.00 0.00 0.00 0.00 0.00 0.00 0.00 0.00 0.00 0.00 0.00 0.00 0.00 0.00 0.00 0.00 0.00 0.00 0.00 0.00 0.00 0.00 0.00 0.00
0.00 0.00 0.00 0.00 0.00 0.00 0.00 0.00 0.00 0.00 0.00 0.00 0.00 0.00 0.00 0.00 0.00 0.00 0.00 0.00 0.00 0.00 0.00 0.00 0.00 0.00 0.00 0.00 0.00 0.00 0.00 0.00 0.00 0.00 0.00 0.00 0.00 0.00 0.00 0.00 0.00 0.00 0.00 0.00 0.00
0.00 0.00 0.00 0.00 0.00 0.00 0.00 0.00 0.00 0.00 0.00 0.00 0.00 0.00 0.00 0.00 0.00 0.00 0.00 0.00 0.00 0.00 0.00 0.00 0.00 0.00 0.00 0.00 0.00 0.00 0.00 0.00 0.00 0.00 0.00 0.00 0.00 0.00 0.00 0.00 0.00 0.00 0.00 0.00 0.00
0.00 0.00 0.00 0.00 0.00 0.00 0.00 0.00 0.00 0.00 0.00 0.00 0.00 0.00 0.00 0.00 0.00 0.00 0.00 0.00 0.00 0.00 0.00 0.00 0.00 0.00 0.00 0.00 0.00 0.00 0.00 0.00 0.00 0.00 0.00 0.00 0.00 0.00 0.00 0.00 0.00 0.00 0.00 0.00 0.00
0.00 0.00 0.00 0.00 0.00 0.00 0.00 0.00 0.00 0.00 0.00 0.00 0.00 0.00 0.00 0.00 0.00 0.00 0.00 0.00 0.00 0.00 0.00 0.00 0.00 0.00 0.00 0.00 0.00 0.00 0.00 0.00 0.00 0.00 0.00 0.00 0.00 0.00 0.00 0.00 0.00 0.00 0.00 0.00 0.00
0.00 0.00 0.00 0.00 0.00 0.00 0.00 0.00 0.00 0.00 0.00 0.00 0.00 0.00 0.00 0.00 0.00 0.00 0.00 0.00 0.00 0.00 0.00 0.00 0.00 0.00 0.00 0.00 0.00 0.00 0.00 0.00 0.00 0.00 0.00 0.00 0.00 0.00 0.00 0.00 0.00 0.00 0.00 0.00 0.00
0.00 0.00 0.00 0.00 0.00 0.00 0.00 0.00 0.00 0.00 0.00 0.00 0.00 0.00 0.00 0.00 0.00 0.00 0.00 0.00 0.00 0.00 0.00 0.00 0.00 0.00 0.00 0.00 0.00 0.00 0.00 0.00 0.00 0.00 0.00 0.00 0.00 0.00 0.00 0.00 0.00 0.00 0.00 0.00 0.00
0.00 0.00 0.00 0.00 0.00 0.00 0.00 0.00 0.00 0.00 0.00 0.00 0.00 0.00 0.00 0.00 0.00 0.00 0.00 0.00 0.00 0.00 0.00 0.00 0.00 0.00 0.00 0.00 0.00 0.00 0.00 0.00 0.00 0.00 0.00 0.00 0.00 0.00 0.00 0.00 0.00 0.00 0.00 0.00 0.00
0.00 0.00 0.00 0.00 0.00 0.00 0.00 0.00 0.00 0.00 0.00 0.00 0.00 0.00 0.00 0.00 0.00 0.00 0.00 0.00 0.00 0.00 0.00 0.00 0.00 0.00 0.00 0.00 0.00 0.00 0.00 0.00 0.00 0.00 0.00 0.00 0.00 0.00 0.00 0.00 0.00 0.00 0.00 0.00 0.00
0.00 0.00 0.00 0.00 0.00 0.00 0.00 0.00 0.00 0.00 0.00 0.00 0.00 0.00 0.00 0.00 0.00 0.00 0.00 0.00 0.00 0.00 0.00 0.00 0.00 0.00 0.00 0.00 0.00 0.00 0.00 0.00 0.00 0.00 0.00 0.00 0.00 0.00 0.00 0.00 0.00 0.00 0.00 0.00 0.00
MSLP
1015.19 1014.88 1014.64 1014.32 1014.03 1013.70 1013.34 1012.93 1012.57 1012.22 1011.95 1011.38 1010.82 1010.20 1009.66 1008.95 1007.96 1007.57 1007.10 1004.92 1004.66 1004.76 1005.03 1005.77 1005.98 1006.05 1006.18 1006.24 1006.02 1006.24 1007.60 1008.34 1008.36 1008.23 1007.69 1006.75 1006.72 1007.01 1007.23 1007.76 1008.26 1008.74 1009.50 1010.33 1011.93
1015.12 1014.88 1014.57 1014.25 1013.97 1013.63 1013.28 1012.92 1012.51 1012.24 1011.89 1011.39 1010.89 1010.38 1009.88 1009.56 1008.77 1006.81 1004.96 1004.34 1004.45 1004.62 1004.97 1005.21 1005.26 1005.70 1006.17 1006.13 1006.27 1006.49 1007.28 1007.50 1007.37 1007.38 1007.46 1006.68 1006.70 1006.74 1007.45 1008.10 1008.84 1009.64 1010.26 1010.94 1012.12
1015.07 1014.77 1014.51 1014.24 1013.94 1013.63 1013.31 1012.99 1012.60 1012.19 1011.91 1011.48 1010.94 1010.36 1009.77 1009.65 1008.65 1005.90 1004.45 1004.13 1004.33 1004.68 1004.56 1004.66 1004.60 1005.19 1005.33 1005.89 1006.10 1006.47 1006.65 1006.81 1006.81 1006.74 1006.83 1006.41 1006.52 1006.94 1007.59 1008.39 1008.80 1009.66 1010.57 1011.36 1012.22
1014.92 1014.69 1014.41 1014.06 1013.68 1013.35 1013.01 1012.76 1012.46 1012.03 1011.68 1011.31 1010.81 1010.23 1009.59 1009.32 1007.71 1004.99 1004.56 1004.23 1004.24 1004.54 1004.76 1004.59 1004.54 1004.92 1005.45 1006.02 1006.18 1006.41 1006.56 1006.58 1006.73 1006.70 1006.85 1006.37 1006.66 1007.05 1007.36 1007.55 1008.05 1009.28 1009.97 1011.10 1012.05
1014.84 1014.40 1014.13 1013.90 1013.58 1013.16 1012.71 1012.34 1012.03 1011.65 1011.38 1011.07 1010.61 1010.13 1009.52 1008.83 1006.41 1004.64 1004.61 1004.50 1004.39 1004.49 1004.65 1004.53 1004.63 1004.89 1005.62 1005.94 1006.24 1006.57 1006.73 1006.75 1006.56 1006.63 1006.51 1006.42 1006.65 1007.04 1007.51 1007.70 1008.22 1009.37 1010.41 1011.15 1011.65
1014.99 1014.52 1013.99 1013.53 1013.13 1012.75 1012.30 1011.94 1011.62 1011.36 1011.19 1010.95 1010.51 1010.14 1009.77 1008.13 1004.66 1004.48 1004.52 1004.35 1004.30 1004.42 1004.48 1004.35 1004.35 1004.48 1005.31 1005.97 1006.53 1006.56 1006.59 1006.94 1006.85 1006.86 1006.68 1006.74 1007.10 1007.02 1007.99 1008.37 1009.04 1009.67 1010.44 1011.07 1011.52
1015.06 1014.67 1014.18 1013.59 1013.06 1012.55 1012.05 1011.64 1011.29 1011.05 1010.82 1010.52 1010.29 1010.07 1009.23 1006.07 1004.38 1004.52 1004.62 1004.31 1004.03 1004.27 1004.25 1003.90 1003.96 1004.48 1005.11 1006.06 1006.54 1006.76 1006.87 1007.10 1007.20 1006.79 1006.88 1006.91 1007.34 1007.72 1007.97 1008.50 1009.43 1010.05 1010.47 1010.88 1011.08
1015.01 1014.59 1014.16 1013.66 1013.07 1012.47 1011.81 1011.23 1010.78 1010.43 1010.23 1010.15 1010.10 1009.81 1007.98 1004.99 1004.65 1004.28 1004.19 1003.93 1003.83 1004.30 1003.91 1003.31 1003.89 1004.69 1005.42 1005.99 1006.65 1007.13 1007.36 1007.64 1007.29 1006.92 1006.91 1007.22 1007.94 1008.12 1008.42 1008.73 1009.46 1010.06 1010.43 1010.53 1010.65
1014.91 1014.45 1013.94 1013.39 1012.80 1012.17 1011.54 1010.97 1010.28 1009.72 1009.81 1009.89 1009.92 1009.37 1007.12 1004.67 1004.53 1003.63 1003.79 1003.79 1003.53 1003.95 1003.58 1003.52 1004.09 1005.14 1005.89 1006.62 1007.42 1007.91 1008.02 1007.88 1007.27 1006.93 1007.18 1007.55 1008.24 1008.27 1008.54 1009.06 1009.62 1009.71 1010.00 1010.21 1010.39
1014.90 1014.30 1013.61 1013.07 1012.54 1011.84 1011.06 1010.31 1009.94 1009.84 1009.86 1009.85 1009.53 1009.26 1006.45 1004.99 1004.30 1003.81 1003.70 1003.59 1003.59 1003.72 1004.00 1004.37 1005.11 1005.81 1006.77 1007.39 1007.78 1007.95 1008.05 1007.71 1007.26 1007.02 1007.36 1007.81 1008.15 1008.33 1008.48 1008.80 1009.16 1009.52 1009.77 1009.82 1009.72
1014.60 1014.01 1013.45 1012.91 1012.29 1011.62 1010.94 1010.03 1010.37 1010.11 1009.62 1008.54 1008.05 1007.41 1006.10 1004.89 1004.29 1003.79 1003.59 1003.61 1003.73 1004.00 1004.83 1005.33 1006.07 1006.13 1006.79 1006.83 1006.78 1007.23 1007.57 1007.47 1007.02 1006.98 1007.28 1007.84 1008.18 1008.18 1008.31 1008.63 1008.87 1009.05 1009.12 1008.99 1008.78
1014.44 1013.86 1013.27 1012.60 1012.05 1011.47 1011.21 1010.62 1010.32 1010.50 1009.44 1007.47 1006.97 1006.66 1005.84 1005.36 1005.22 1004.08 1003.62 1003.91 1004.20 1004.86 1005.29 1005.96 1005.95 1005.60 1005.95 1006.17 1006.54 1007.08 1007.36 1007.52 1007.35 1007.33 1007.79 1008.09 1008.24 1008.15 1008.11 1007.88 1007.97 1008.24 1008.37 1008.16 1008.02
1014.28 1013.79 1013.19 1012.43 1011.83 1011.71 1011.54 1010.40 1009.95 1009.93 1009.78 1007.00 1006.29 1005.87 1005.31 1005.26 1004.92 1003.91 1003.56 1003.81 1004.47 1005.29 1005.55 1005.77 1005.42 1005.25 1005.38 1005.72 1006.36 1006.76 1006.96 1006.98 1007.17 1007.47 1007.84 1008.33 1008.29 1008.14 1007.95 1007.97 1007.87 1007.70 1007.64 1007.73 1007.49
1014.19 1013.77 1013.29 1012.45 1011.91 1012.07 1010.96 1009.95 1009.78 1009.83 1009.42 1006.91 1005.72 1004.66 1004.74 1004.51 1004.26 1003.38 1003.29 1003.60 1004.33 1004.92 1005.67 1005.60 1005.05 1004.99 1005.15 1005.57 1006.00 1006.38 1006.26 1006.50 1007.15 1007.73 1008.60 1008.71 1009.08 1008.37 1008.14 1008.04 1007.74 1007.39 1007.34 1006.93 1006.70
1013.96 1013.63 1013.35 1013.15 1012.84 1012.02 1010.36 1009.94 1009.54 1009.46 1008.64 1005.80 1004.83 1004.08 1004.22 1004.20 1003.64 1003.32 1003.11 1003.30 1004.09 1004.70 1005.41 1005.22 1004.91 1004.78 1004.94 1005.05 1005.38 1005.89 1006.12 1006.97 1007.62 1008.59 1009.14 1009.49 1009.65 1007.75 1007.85 1007.77 1007.41 1007.01 1006.76 1006.33 1005.85
1013.60 1013.42 1013.14 1013.19 1013.00 1010.74 1010.08 1009.72 1009.44 1009.69 1007.76 1005.37 1004.45 1004.23 1004.46 1004.04 1003.64 1003.30 1003.21 1003.30 1003.86 1004.61 1005.08 1005.07 1004.65 1004.48 1004.36 1004.38 1004.75 1005.62 1006.69 1007.55 1008.86 1009.58 1010.34 1010.34 1010.11 1008.04 1007.39 1006.80 1006.79 1006.46 1005.84 1005.74 1005.27
1013.01 1012.82 1013.02 1012.65 1011.34 1010.38 1010.15 1009.92 1010.36 1009.32 1007.11 1005.93 1005.02 1004.55 1004.39 1004.26 1003.97 1003.62 1003.77 1004.10 1004.56 1005.37 1005.81 1005.49 1004.93 1004.39 1004.18 1004.57 1005.08 1006.03 1007.54 1009.01 1010.36 1011.22 1011.31 1010.74 1010.45 1007.66 1006.60 1005.95 1005.77 1005.75 1005.76 1005.88 1005.91
1012.37 1011.76 1011.44 1011.06 1010.48 1010.41 1010.19 1010.34 1010.49 1008.85 1007.54 1006.07 1005.32 1004.70 1004.54 1004.25 1004.16 1004.19 1004.46 1005.02 1005.27 1005.66 1006.49 1006.11 1005.41 1004.58 1004.16 1004.42 1004.86 1006.16 1007.52 1008.98 1010.56 1011.71 1011.47 1010.98 1009.71 1006.77 1005.81 1005.29 1005.49 1005.32 1005.55 1005.69 1005.66
1011.82 1011.39 1011.31 1010.10 1010.25 1010.73 1010.55 1011.11 1010.05 1008.86 1007.69 1006.68 1005.52 1005.06 1004.74 1004.31 1004.29 1004.52 1004.97 1005.26 1005.17 1005.52 1006.11 1006.20 1005.48 1004.46 1004.08 1003.89 1004.64 1006.22 1007.34 1008.07 1010.11 1011.76 1011.71 1010.61 1008.92 1006.41 1005.48 1005.66 1005.31 1005.37 1005.51 1005.71 1006.04
1012.43 1011.98 1010.74 1009.93 1010.06 1010.31 1010.62 1010.87 1009.91 1008.61 1007.46 1006.70 1006.47 1005.98 1005.53 1004.71 1004.73 1004.76 1004.97 1004.29 1004.59 1004.74 1004.74 1005.66 1005.68 1004.69 1003.96 1004.10 1004.91 1005.50 1006.80 1008.38 1010.07 1011.59 1011.84 1010.62 1009.40 1007.68 1006.10 1005.84 1005.60 1005.78 1005.86 1006.09 1006.32
1012.57 1011.89 1010.58 1010.17 1010.35 1010.44 1011.18 1010.70 1009.41 1007.97 1007.41 1006.82 1006.46 1006.32 1005.79 1005.07 1004.76 1004.70 1004.35 1003.67 1003.55 1004.41 1004.74 1005.53 1005.94 1005.67 1004.89 1004.69 1005.03 1006.16 1007.08 1008.57 1009.71 1010.62 1010.98 1010.33 1008.66 1005.65 1005.04 1005.35 1005.66 1005.87 1005.98 1006.32 1006.48
1013.01 1012.19 1010.73 1010.76 1010.81 1011.52 1011.17 1010.02 1008.94 1007.76 1006.96 1006.66 1006.40 1006.04 1005.51 1004.85 1004.45 1004.28 1003.94 1003.11 1002.40 1003.11 1004.74 1005.06 1005.97 1006.22 1005.43 1004.71 1004.64 1005.14 1006.12 1007.41 1009.26 1010.38 1010.41 1009.46 1006.77 1004.69 1004.63 1005.04 1005.31 1005.85 1006.26 1006.47 1006.81
1014.01 1012.90 1010.85 1010.74 1011.19 1011.53 1010.78 1009.80 1008.72 1007.79 1006.96 1006.48 1006.03 1005.39 1004.92 1004.81 1004.53 1003.77 1003.04 1001.65 1001.97 1002.83 1003.32 1004.60 1005.59 1006.21 1005.68 1005.32 1005.01 1005.05 1005.79 1006.76 1007.74 1008.63 1009.38 1008.82 1006.20 1004.83 1005.01 1005.06 1005.24 1005.85 1006.67 1007.08 1007.08
1014.41 1013.32 1011.85 1011.26 1011.43 1011.08 1010.72 1009.86 1008.85 1007.46 1006.94 1006.30 1005.67 1005.07 1004.83 1004.42 1004.00 1003.66 1002.64 1001.55 1001.75 1001.99 1002.25 1003.14 1005.02 1005.52 1005.52 1004.84 1004.33 1004.83 1005.11 1005.86 1006.69 1007.93 1008.04 1007.05 1005.39 1004.82 1004.90 1005.01 1005.39 1005.43 1005.99 1006.74 1007.02
1014.49 1013.76 1012.95 1012.20 1011.77 1011.19 1010.62 1009.90 1009.01 1007.94 1006.78 1006.10 1005.46 1005.21 1004.97 1004.68 1004.03 1003.53 1002.63 1001.85 1001.49 1002.14 1002.74 1003.31 1004.79 1005.08 1004.44 1004.15 1004.12 1004.06 1004.39 1004.91 1005.72 1005.69 1006.12 1004.92 1005.28 1003.85 1003.68 1003.89 1004.31 1005.22 1005.73 1006.25 1006.70
1014.58 1014.06 1013.17 1012.44 1011.77 1011.21 1010.64 1009.80 1008.99 1008.16 1007.40 1006.32 1005.92 1005.09 1004.56 1004.57 1003.82 1003.60 1003.08 1002.46 1002.21 1002.56 1003.18 1003.95 1004.82 1005.21 1004.88 1004.46 1004.29 1003.98 1003.88 1003.95 1004.13 1004.57 1004.57 1004.29 1003.91 1002.68 1003.01 1003.40 1004.43 1004.54 1005.30 1005.97 1006.58
1014.47 1014.01 1013.68 1012.63 1011.98 1011.34 1010.42 1009.56 1008.80 1008.35 1006.98 1006.35 1005.95 1005.45 1004.55 1004.06 1003.92 1003.56 1003.27 1002.75 1002.71 1002.94 1003.77 1004.58 1005.23 1005.89 1005.59 1004.72 1004.38 1004.16 1003.30 1003.07 1002.93 1003.13 1003.06 1003.34 1002.62 1002.75 1003.11 1003.14 1003.09 1003.66 1004.54 1005.35 1005.81
Thickness
5754 5758 5762 5767 5770 5774 5779 5783 5787 5790 5793 5799 5804 5810 5815 5821 5829 5831 5824 5847 5852 5854 5851 5841 5835 5832 5833 5823 5830 5828 5780 5767 5772 5772 5778 5804 5796 5804 5808 5792 5794 5795 5788 5787 5778
5752 5756 5760 5765 5769 5773 5778 5782 5786 5789 5793 5798 5803 5808 5812 5815 5820 5826 5852 5857 5855 5854 5844 5834 5826 5828 5816 5819 5820 5806 5782 5783 5797 5796 5787 5802 5799 5800 5792 5786 5783 5780 5786 5785 5776
5749 5754 5758 5762 5766 5770 5775 5779 5784 5788 5792 5796 5801 5806 5813 5814 5816 5830 5856 5858 5856 5853 5850 5844 5840 5830 5823 5824 5817 5810 5790 5802 5804 5807 5803 5805 5802 5806 5788 5775 5784 5775 5777 5779 5774
5747 5751 5755 5761 5766 5770 5774 5778 5782 5788 5792 5796 5801 5806 5813 5815 5797 5845 5854 5856 5857 5854 5845 5837 5833 5820 5813 5807 5816 5804 5810 5810 5810 5809 5800 5802 5807 5796 5799 5797 5801 5789 5787 5782 5775
5744 5749 5754 5758 5763 5768 5774 5779 5783 5788 5792 5796 5801 5805 5812 5805 5815 5852 5853 5854 5855 5850 5838 5830 5824 5821 5807 5810 5813 5804 5807 5811 5814 5809 5807 5810 5802 5797 5798 5805 5805 5795 5784 5778 5777
5739 5745 5751 5757 5763 5768 5774 5779 5784 5787 5790 5794 5800 5803 5806 5794 5851 5853 5853 5853 5850 5845 5837 5835 5831 5836 5820 5814 5809 5814 5810 5805 5808 5804 5806 5802 5795 5802 5797 5801 5794 5790 5783 5779 5777
5734 5739 5745 5752 5759 5765 5772 5778 5782 5786 5790 5795 5798 5801 5801 5814 5852 5852 5851 5850 5853 5846 5834 5842 5845 5835 5829 5812 5821 5813 5802 5802 5800 5806 5803 5807 5790 5787 5800 5800 5788 5785 5784 5783 5784
5730 5735 5741 5748 5755 5762 5770 5777 5784 5788 5792 5795 5797 5799 5797 5843 5848 5850 5852 5850 5854 5848 5846 5852 5850 5834 5826 5830 5816 5799 5794 5770 5797 5806 5809 5803 5771 5793 5800 5797 5788 5786 5785 5788 5788
5725 5732 5738 5745 5752 5760 5768 5776 5784 5790 5791 5794 5794 5796 5797 5842 5836 5853 5852 5843 5849 5846 5848 5851 5842 5822 5822 5799 5784 5784 5766 5772 5788 5809 5803 5796 5776 5795 5801 5794 5787 5792 5793 5791 5789
5719 5727 5735 5743 5750 5759 5768 5777 5782 5786 5789 5792 5794 5786 5814 5821 5835 5845 5850 5849 5839 5838 5829 5825 5808 5796 5789 5782 5758 5774 5770 5778 5781 5801 5801 5791 5785 5794 5800 5797 5793 5791 5791 5794 5795
5715 5724 5731 5739 5747 5755 5765 5775 5774 5776 5784 5789 5794 5794 5809 5827 5837 5836 5845 5839 5836 5825 5796 5804 5785 5781 5788 5794 5801 5794 5785 5783 5797 5808 5800 5790 5785 5794 5800 5799 5794 5793 5795 5797 5801
5711 5719 5727 5736 5743 5751 5757 5767 5769 5769 5763 5795 5799 5799 5812 5820 5805 5823 5841 5820 5814 5793 5800 5785 5777 5803 5809 5805 5798 5792 5784 5781 5794 5803 5796 5788 5787 5798 5801 5804 5806 5803 5803 5807 5811
5707 5714 5722 5731 5739 5744 5749 5761 5767 5770 5756 5785 5797 5797 5806 5812 5802 5812 5828 5818 5804 5788 5790 5778 5796 5810 5811 5804 5796 5789 5781 5784 5789 5797 5798 5787 5781 5791 5803 5806 5808 5812 5815 5814 5816
5701 5707 5714 5725 5735 5734 5746 5759 5763 5764 5734 5765 5785 5797 5808 5809 5800 5828 5831 5821 5806 5786 5785 5788 5803 5804 5800 5795 5797 5783 5805 5802 5793 5787 5764 5788 5750 5783 5794 5797 5807 5813 5812 5818 5821
5696 5701 5707 5712 5717 5729 5748 5752 5759 5759 5706 5780 5785 5812 5807 5799 5807 5815 5831 5821 5796 5794 5790 5784 5792 5796 5791 5798 5805 5796 5811 5803 5797 5777 5776 5774 5758 5783 5795 5793 5798 5812 5818 5822 5830
5694 5697 5703 5706 5710 5732 5741 5747 5751 5714 5704 5759 5781 5780 5782 5793 5798 5809 5812 5823 5815 5797 5795 5793 5809 5806 5802 5817 5814 5814 5796 5787 5772 5766 5744 5759 5762 5774 5794 5807 5805 5814 5823 5826 5833
5694 5697 5699 5704 5720 5729 5734 5737 5700 5688 5746 5748 5760 5773 5771 5773 5783 5793 5788 5787 5773 5760 5765 5783 5789 5806 5814 5801 5809 5797 5773 5734 5741 5730 5733 5752 5756 5783 5811 5818 5818 5817 5821 5824 5824
5695 5702 5707 5712 5719 5722 5727 5712 5688 5714 5721 5751 5759 5762 5758 5771 5777 5779 5774 5766 5780 5772 5745 5749 5749 5787 5810 5802 5797 5787 5776 5740 5729 5722 5736 5756 5749 5790 5819 5829 5830 5829 5826 5827 5826
5695 5701 5704 5715 5716 5714 5711 5679 5689 5706 5729 5735 5745 5747 5752 5767 5770 5772 5763 5758 5774 5775 5755 5742 5756 5799 5806 5814 5810 5789 5770 5784 5739 5730 5733 5747 5770 5808 5818 5818 5826 5825 5826 5823 5821
5684 5690 5703 5711 5712 5711 5693 5681 5697 5716 5729 5736 5724 5736 5733 5752 5757 5754 5752 5777 5779 5783 5789 5771 5755 5790 5807 5812 5807 5800 5797 5763 5742 5727 5728 5739 5749 5766 5803 5810 5817 5819 5817 5817 5818
5680 5691 5700 5703 5704 5698 5675 5679 5701 5719 5727 5728 5729 5730 5734 5746 5750 5748 5763 5781 5788 5779 5786 5770 5762 5771 5790 5784 5783 5780 5773 5759 5756 5740 5728 5726 5750 5804 5814 5814 5813 5816 5817 5815 5815
5667 5679 5690 5691 5682 5664 5673 5686 5706 5716 5729 5728 5733 5733 5736 5751 5755 5752 5758 5775 5798 5790 5773 5777 5753 5745 5767 5797 5804 5797 5782 5773 5750 5748 5734 5740 5759 5826 5823 5820 5821 5816 5817 5817 5814
5654 5659 5682 5683 5666 5664 5678 5692 5706 5712 5719 5729 5733 5740 5748 5750 5747 5757 5765 5798 5797 5789 5778 5776 5751 5730 5751 5772 5789 5789 5784 5777 5762 5754 5736 5739 5763 5811 5815 5816 5820 5815 5810 5807 5809
5650 5662 5668 5670 5665 5674 5678 5684 5692 5716 5717 5728 5733 5745 5745 5747 5752 5758 5773 5797 5800 5800 5802 5794 5749 5750 5734 5764 5785 5785 5789 5782 5776 5746 5746 5755 5788 5811 5809 5812 5815 5821 5820 5811 5810
5644 5654 5657 5657 5664 5671 5677 5682 5686 5695 5719 5729 5732 5735 5742 5740 5751 5757 5775 5785 5800 5793 5791 5786 5762 5758 5772 5784 5788 5792 5791 5780 5775 5777 5771 5792 5780 5817 5822 5821 5823 5820 5817 5814 5809
5644 5646 5648 5652 5659 5667 5666 5676 5686 5695 5705 5717 5722 5733 5739 5736 5759 5759 5770 5777 5784 5792 5788 5774 5761 5764 5775 5775 5775 5780 5787 5787 5788 5790 5781 5794 5794 5825 5823 5819 5817 5823 5817 5812 5806
5634 5640 5643 5651 5656 5660 5664 5678 5686 5694 5710 5719 5725 5726 5739 5755 5763 5767 5773 5776 5783 5786 5773 5767 5753 5746 5754 5771 5769 5754 5779 5791 5801 5797 5799 5783 5812 5816 5817 5822 5828 5824 5821 5813 5809